Content
SEND FEEDBACK

Daily
Averages
Monthly
Summary
United States of America

RAPID CITY, SOUTH DAKOTA


Home > North America > United States > South Dakota
Elevation: 963 meters     Latitude: 44 03N     Longitude: 103 04W

WEATHER
 
SELECT A DAY
Number of Records: 200,436;   Date Range: 1/1/95 - 8/30/14
 
SHARE

PRINT THIS DATA

[ ← Previous Day ]
WEATHER ALMANAC - 4 MARCH, 2014
[ Next Day → ]
[ °F ]   °C
Weather ElementAverageHighLow
Temperature-10 °C-8 °C (3:12 pm)-14.4 °C (5:52 am)
Dewpoint-12.9 °C-10 °C (10:52 pm)-17 °C (7:13 am)
Humidity79.5 %88 % (10:52 pm)70 % (10:52 am)
Barometer1018.3 hPa1023.7 hPa (9:52 pm)1011.5 hPa (7:13 am)
Wind Speed7.2 km/h18.5 km/h (7:13 am)
Weather ElementAverage
Visibility16.1 km
Wind DirectionENE (73 °)

Weather ElementTotal
Precipitation---
Heating Degree Days29.6 (Base 18.3)
Averaged from 30 records on 4 March, 2014
WEATHER CONDITIONS BREAKOUT
WIND DIRECTION BREAKOUT
WEATHER BY HOUR - 4 MARCH, 2014
[ °F ]   °C
Local TimeTemperatureDewpointHumidityBarometerVisibilityWind DirectionWind SpeedGust SpeedPrecipitationEventsConditions
1:52 AM-12.2 °C-14.4 °C84 %1015.9 hPa16.1 kmCalmClear
2:52 AM-12.2 °C-14.4 °C84 %1014.9 hPa16.1 kmEast (80°)9.3 km/hClear
3:52 AM-10.6 °C-13.3 °C81 %1014.9 hPa16.1 kmNE (50°)13 km/hScattered Clouds
4:52 AM-13.3 °C-15.6 °C83 %1015.9 hPa16.1 kmNNE (20°)13 km/hOvercast
5:52 AM-14.4 °C-16.7 °C83 %1016.9 hPa16.1 kmNorth (10°)13 km/hMostly Cloudy
6:52 AM-13.9 °C-16.7 °C80 %1016.9 hPa16.1 kmNNE (30°)11.1 km/hScattered Clouds
7:13 AM-14 °C-17 °C79 %1011.5 hPa16.1 kmNorth (360°)18.5 km/hMostly Cloudy
7:52 AM-14.4 °C-16.1 °C87 %1018.3 hPa16.1 kmNorth (10°)18.5 km/hOvercast
8:52 AM-12.2 °C-15 °C80 %1017.9 hPa16.1 kmNNE (20°)11.1 km/hOvercast
9:52 AM-11.1 °C-14.4 °C77 %1018.6 hPa16.1 kmNNE (20°)11.1 km/hOvercast
10:52 AM-9.4 °C-13.9 °C70 %1019 hPa16.1 kmCalmMostly Cloudy
11:20 AM-9 °C-13 °C73 %1012.5 hPa16.1 kmVariable5.6 km/hMostly Cloudy
11:52 AM-9.4 °C-13.3 °C74 %1018.3 hPa16.1 kmCalmMostly Cloudy
12:52 PM-8.9 °C-12.8 °C74 %1018.3 hPa16.1 kmENE (70°)7.4 km/hOvercast
1:52 PM-8.3 °C-12.8 °C71 %1018.3 hPa16.1 kmNNE (30°)11.1 km/hClear
2:52 PM-8.3 °C-12.2 °C74 %1019 hPa16.1 kmCalmMostly Cloudy
3:12 PM-8 °C-12 °C73 %1013.2 hPa16.1 kmEast (80°)5.6 km/hScattered Clouds
3:52 PM-8.3 °C-11.7 °C77 %1019 hPa16.1 kmCalmClear
4:52 PM-8.9 °C-12.2 °C77 %1020.7 hPa16.1 kmCalmPartly Cloudy
5:21 PM-9 °C-12 °C79 %1015.2 hPa16.1 kmCalmMostly Cloudy
5:52 PM-8.3 °C-11.7 °C77 %1021.7 hPa16.1 kmSSE (150°)7.4 km/hOvercast
6:48 PM-8 °C-11 °C79 %1015.9 hPa16.1 kmSSE (150°)7.4 km/hOvercast
6:52 PM-8.3 °C-11.1 °C81 %1022.4 hPa16.1 kmSE (140°)7.4 km/hOvercast
7:52 PM-8.3 °C-11.1 °C81 %1023.4 hPa16.1 kmSSE (160°)7.4 km/hOvercast
8:45 PM-8 °C-11 °C79 %1017.3 hPa16.1 kmSouth (170°)7.4 km/hOvercast
8:52 PM-8.3 °C-11.1 °C81 %1023.4 hPa16.1 kmSouth (170°)7.4 km/hOvercast
9:27 PM-9 °C-11 °C86 %1017.6 hPa16.1 kmCalmOvercast
9:52 PM-8.9 °C-11.1 °C84 %1023.7 hPa16.1 kmSouth (170°)5.6 km/hOvercast
10:52 PM-8.3 °C-10 °C88 %1023.4 hPa16.1 kmSSE (160°)9.3 km/hOvercast
11:52 PM-8.3 °C-10 °C88 %1023.7 hPa16.1 kmSE (140°)7.4 km/hOvercast
Hourly data recorded from KRAP, located 0 kilometers away from Rapid City, South Dakota







STORIES FROM OUR PARTNERS